Location: Unspecified
(49.8670°N, 0.0000°E)
Time: 05:30:42
(UTC+00:00)

Vanguard 1 - Pass Details

Date: 26 June 2019
Orbit: 655 x 3829 km, 34.2° (Epoch: 16 August)

Event Time Altitude Azimuth Distance (km) Brightness Sun altitude
Rises 02:22:47 0° 238° (WSW) 7,824 - -10.4°
Exits shadow 02:26:45 - 234° (SW) 7,012 13.8 -10.1°
Reaches altitude 10° 02:28:59 10° 232° (SW) 6,543 13.6 -9.9°
Maximum altitude 02:46:02 39° 173° (S) 3,438 12.5 -8.3°
Drops below altitude 10° 02:56:33 10° 110° (ESE) 4,099 13.5 -7.3°
Sets 02:59:26 0° 102° (ESE) 4,739 14.0 -7.0°
